Powrót do katalogu

FENGYUN 1C DEB

AktywnyPO
NORAD 35223·DEBRIS·🇨🇳 China

Wystrzelony May 10, 1999 z Taiyuan Satellite Launch Center

Loading…

Następne Przeloty (najbliższe 24 godziny)

TLE

ŚwieżeSource: Space-Track

Epoka: Sep 14, 2026, 01:02 UTC

1 35223U 99025DQF 26257.04340629  .00003299  00000-0  28635-3 0  9990
2 35223  98.9761 282.1896 0121690 163.3902 197.1355 14.92355966979844

Śledź FENGYUN 1C DEB w czasie rzeczywistym z AllMySat

Download on the App Store